This is the latest recevied weather packets stored in our database for station/object DO0SOB-11. If no packets are shown the sender has not sent any weather packets the latest 10 day(s).
| Time | Temp. | Humidity | Pressure | Rain* | Wind** | Luminosity | Snow |
|---|---|---|---|---|---|---|---|
| 1777281241 | 13.33° C | 100% | 984.8 hPa | - | - | - | - |
| 1777280341 | 13.89° C | 100% | 984.7 hPa | - | - | - | - |
| 1777278541 | 15° C | 82% | 984.9 hPa | - | - | - | - |
| 1777277641 | 14.44° C | 90% | 985 hPa | - | - | - | - |
| 1777276741 | 14.44° C | 87% | 985.1 hPa | - | - | - | - |
| 1777275841 | 13.89° C | 89% | 984.9 hPa | - | - | - | - |
| 1777274941 | 13.33° C | 100% | 984.9 hPa | - | - | - | - |
| 1777274041 | 15° C | 100% | 984.9 hPa | - | - | - | - |
| 1777273141 | 11.67° C | 100% | 984.9 hPa | - | - | - | - |
| 1777272241 | 10° C | 100% | 984.8 hPa | - | - | - | - |
| 1777271341 | 8.33° C | 100% | 984.8 hPa | - | - | - | - |
| 1777270441 | 7.22° C | 100% | 984.9 hPa | - | - | - | - |
| 1777269541 | 7.22° C | 100% | 984.7 hPa | - | - | - | - |
| 1777268641 | 3.33° C | 100% | 984.5 hPa | - | - | - | - |
| 1777267740 | 3.33° C | 100% | 984.5 hPa | - | - | - | - |
| 1777266840 | 3.33° C | 100% | 984.7 hPa | - | - | - | - |
| 1777265940 | 4.44° C | 100% | 984.6 hPa | - | - | - | - |
| 1777265040 | 3.33° C | 100% | 984.5 hPa | - | - | - | - |
| 1777264140 | 2.78° C | 100% | 984.3 hPa | - | - | - | - |
| 1777263240 | 1.11° C | 100% | 984.1 hPa | - | - | - | - |
| 1777262340 | 1.67° C | 100% | 984 hPa | - | - | - | - |
| 1777261440 | 0° C | 100% | 984.1 hPa | - | - | - | - |
| 1777260540 | 2.22° C | 100% | 984.4 hPa | - | - | - | - |
| 1777259640 | 2.22° C | 100% | 984.1 hPa | - | - | - | - |
| 1777258740 | 1.67° C | 100% | 984.1 hPa | - | - | - | - |
* Rain since midnight (hover to see other rain measurements)
** Current wind speed in m/s (hover to see current wind gust speed)